Regional Weather Roundup
Issued by NWS

Home | Current Version | Previous Version | Text Only | Print | Product List | Glossary On
Versions: 1 2 3 4 5 6 7 8 9 10 11 12 13 14 15 16 17 18 19 20 21 22 23 24 25 26 27 28 29 30 31 32 33 34 35 36 37 38 39 40 41 42 43 44 45 46 47 48 49 50
000
ASUS44 KFWD 202215
RWRTX
NORTH TEXAS HOURLY WEATHER ROUNDUP
NATIONAL WEATHER SERVICE FORT WORTH TX
500 PM CDT FRI OCT 20 2017

NOTE: "FAIR" INDICATES FEW OR NO CLOUDS BELOW 12,000 FEET WITH NO
SIGNIFICANT WEATHER AND/OR OBSTRUCTIONS TO VISIBILITY.

TXZ118-119-202300-
DALLAS/FORT WORTH METROPLEX

CITY           SKY/WX    TMP DP  RH WIND       PRES   REMARKS
DFW AIRPORT    PTSUNNY   83  65  54 SE20G25   29.89F
DALLAS LOVE    PTSUNNY   84  65  52 SE23G29   29.90F
FTW MEACHAM    MOSUNNY   81  67  62 SE17G28   29.88F
DAL-EXECUTIVE  MOSUNNY   81  66  60 SE15G22   29.90F
FTW-ALLIANCE   PTSUNNY   80  66  62 SE13G21   29.89F
FTW-SPINKS     PTSUNNY   81  66  61 SE12      29.92F
ARLINGTON      MOSUNNY   80  67  64 SE14G24   29.90F
GRAND PRAIRIE  MOSUNNY   82  63  51 SE12G21   29.92F
ADDISON        MOSUNNY   81  64  57 S17G25    29.92F
MESQUITE       MOSUNNY   81  64  57 SE17      29.93F
LANCASTER      MOSUNNY   82  64  55 SE16      29.93F
$$

TXZ091>094-102>105-117-120-121-131>134-202300-
NORTH CENTRAL TEXAS

CITY           SKY/WX    TMP DP  RH WIND       PRES   REMARKS
SHRMAN/DENISON SUNNY     80  63  56 SE16      29.92F
GAINESVILLE    SUNNY     79  63  58 SE23      29.92S
BOWIE          MOSUNNY   78  65  64 S17       29.89F
BRIDGEPORT     MOSUNNY   78  64  61 S14       29.92S
DECATUR        PTSUNNY   78  64  63 SE15G26   29.89F
DENTON         MOSUNNY   79  65  62 SE17      29.90F
MCKINNEY       MOSUNNY   82  66  58 S17       29.91F
BONHAM         MOSUNNY   80  63  56 S18G25    29.94F
GREENVILLE     CLOUDY    84  63  48 SE17      29.95F
ROCKWALL       PTSUNNY   82  66  57 S16G24    29.93S
TERRELL        PTSUNNY   81  64  56 SE16G26   29.94F
WAXAHACHIE     PTSUNNY   82  65  56 SE12G20   29.92F
CLEBURNE       MOSUNNY   82  64  54 S16       29.91F
GRANBURY       CLOUDY    81  65  58 SE13      29.90F
$$

TXZ083>090-098>101-113>116-127>130-139>142-154-155-202300-
WESTERN NORTH TEXAS

CITY           SKY/WX    TMP DP  RH WIND       PRES   REMARKS
WICHITA FALLS  MOSUNNY   80  63  55 S24G31    29.84F
WF-KICKAPOO    CLOUDY    81  64  56 S20G29    29.88F
VERNON         MOSUNNY   86  52  31 S21       29.83F
ABILENE        MOSUNNY   80  61  52 S16G26    29.88F
ABILENE-DYESS  MOSUNNY   81  62  52 S18       29.87F
GRAHAM         CLOUDY    78  65  63 SE12G20   29.87S
BRECKENRIDGE   MOSUNNY   82  61  49 S18G25    29.88F HAZE
CISCO          PTSUNNY   81  63  54 SE12G22   29.91F
EASTLAND       CLOUDY    78  65  62 S15       29.91S
RANGER         CLOUDY    77  65  66 S10G23    29.92S
MINERAL WELLS  MOSUNNY   79  64  60 S15       29.89F
STEPHENVILLE   CLOUDY    76  64  65 S12       29.95S
COMANCHE       CLOUDY    78  65  64 S13       29.93S
BROWNWOOD      PTSUNNY   81  63  54 SE16G23   29.91F
COLEMAN        MOSUNNY   83  58  42 S17       29.90F
$$

TXZ143>147-156>162-174-175-202300-
CENTRAL TEXAS

CITY           SKY/WX    TMP DP  RH WIND       PRES   REMARKS
WACO           MOSUNNY   86  63  45 SE15G22   29.90F
WACO-TSTC      MOSUNNY   86  63  45 SE9G17    29.91F
WACO-MCGREGOR  MOSUNNY   86  65  49 SE17G24   29.90F
HILLSBORO      PTSUNNY   83  65  55 SE15      29.91F
MEXIA          CLOUDY    80  67  63 E12G22    29.93F
HEARNE         MOSUNNY   83  66  57 SE13      29.92F
CAMERON        CLOUDY    85  66  52 SE12G20   29.91F
TEMPLE         CLOUDY    83  65  54 SE9       29.91F
KILLEEN        MOSUNNY   79  66  64 S10       29.91F
KILLEEN-SKYLRK MOSUNNY   81  67  62 S9        29.92F
FORT HOOD      MOSUNNY   80  65  59 S12       29.88F
GATESVILLE     CLOUDY    79  66  65 SE10      29.93F
HAMILTON       CLOUDY    77  66  69 S15       29.94S
LAMPASAS       PTSUNNY   78  67  69 S6        29.92F
$$

TXZ095>097-106>112-122>126-135>138-148>153-164>167-202300-
EAST TEXAS

CITY           SKY/WX    TMP DP  RH WIND       PRES   REMARKS
PARIS          MOSUNNY   81  63  54 SE18      29.98S
SULPHUR SPRNGS CLOUDY    82  62  50 SE9G18    29.98F
MOUNT PLEASANT SUNNY     79  62  55 SE15G24   30.01F
GILMER         SUNNY     79  60  52 SE8G16    30.00F
MINEOLA        SUNNY     81  64  57 SE13G21   29.98S
TYLER          MOSUNNY   80  62  54 S13       29.99F
LONGVIEW       MOSUNNY   81  63  54 E9        30.00F
MARSHALL       SUNNY     77  55  45 E3        30.03F
ATHENS         CLOUDY    77  61  57 SE12G18   29.96F
PALESTINE      CLOUDY    77  67  69 SE8G17    30.00S
JACKSONVILLE   RAIN      74  67  76 S6        30.03S
HENDERSON      SUNNY     80  61  51 SE7       30.01F
CENTER         PTCLDY    82  64  53 SE9       30.02F
NACOGDOCHES    MOSUNNY   78  64  61 SE8       30.01F
LUFKIN         CLOUDY    77  65  66 SE12      30.00F
$$

SUPPLEMENTAL OBSERVATIONS (NWS FORT WORTH AREA)

CITY           SKY/WX    TMP DP  RH WIND       PRES   REMARKS
DENISON DAM      N/A     81  63  54 SE12        N/A
CADDO GRASSLND   N/A     81  63  54 S8          N/A
PAT MAYSE LAKE   N/A     79  63  57 E14         N/A
GREENVILLE       N/A    N/A N/A N/A SE10G20     N/A
CEDAR HILL       N/A     84  64  51 SE8G18      N/A
LBJ GRASSLAND    N/A     79  64  61 SE15G23     N/A
POSSUM KINGDOM   N/A     81  66  61 SE14G22     N/A
GRANBURY         N/A     81  64  57 SE14        N/A
COMANCHE         N/A     79  63  57 S16G23      N/A
TEMPLE           N/A     82  59  44 S9G17       N/A
LAKE LIMESTONE   N/A     82  68  61 SE10G18     N/A
$$

SUPPLEMENTAL OBSERVATIONS (NWS NORMAN AREA)

CITY           SKY/WX    TMP DP  RH WIND       PRES   REMARKS
GOODLETT         N/A     84  57  39 S18       29.81S
ODELL            N/A     83  59  43 S17       29.83F
CROWELL          N/A     83  60  45 S21       29.84S
KNOX CITY        N/A     84  56  38 S23       29.84F
SEYMOUR          N/A     81  60  48 S15       29.85S
MILLERS CREEK    N/A     82  61  47 S16G24      N/A
$$

SUPPLEMENTAL OBSERVATIONS (NWS SAN ANGELO AREA)

CITY           SKY/WX    TMP DP  RH WIND       PRES   REMARKS
WEINERT          N/A     83  60  45 S15       29.86S
HASKELL          N/A     82  56  41 S13       29.86S
THROCKMORTON     N/A     81  64  55 SE17      29.88S
STAMFORD         N/A     83  60  46 S18       29.87F
CLYDE            N/A     78  60  53 S16G22    29.91F
HAMBY            N/A     82  59  44 S18G24      N/A
IVIE RESERVOIR   N/A     82  59  44 S15G22      N/A
COLORADO BEND    N/A     81  64  57 SE12        N/A
$$

SUPPLEMENTAL OBSERVATIONS (NWS SHREVEPORT AREA)

CITY           SKY/WX    TMP DP  RH WIND       PRES   REMARKS
CLARKSVILLE      N/A     81  59  47 SE13        N/A
TEXARKANA        N/A     75  59  57 SE5G15      N/A
LINDEN           N/A     81  57  44 SE5G15      N/A
CADDO LAKE       N/A     81  55  41 SE5         N/A
GILMER           N/A     81  59  47 SE9G21      N/A
HENDERSON        N/A    N/A N/A N/A SE7G16      N/A
LUFKIN           N/A     79  66  65 MISG        N/A
N SABINE NF      N/A     75  64  69 MISG        N/A
S SABINE NF      N/A     75  63  64 SE3         N/A
$$

SUPPLEMENTAL OBSERVATIONS ARE A COLLECTION OF AUTOMATED INSTRUMENTS
THAT ARE MAINTAINED BY A VARIETY OF FEDERAL AND STATE AGENCIES.
CERTAIN ELEMENTS...SUCH AS HUMIDITY VALUES AND SUSTAINED WIND
SPEEDS...MAY BE APPROXIMATED.




USA.gov is the U.S. government's official web portal to all federal, state and local government web resources and services.